#timestamp,LO_Frequency,Hit,StdDev 
1541163615.3,286046997.6,N
1541163635.1,286046994.9,N
1541163655.8,286046996.5,N
1541163675.7,286046998.8,N
1541163695.5,286046997.0,N
1541163715.4,286046999.1,N
1541163735.2,286046995.4,N
1541163755.0,286046995.4,N
1541163755.9,286046995.4,N
1541163775.8,286046995.5,N
1541163795.6,286046995.4,N
1541163815.4,286046999.4,N
1541163835.3,286046999.5,N
1541163855.1,286046996.9,N
1541163875.9,286046997.4,N
1541163895.7,286046997.3,N
1541163915.5,286046998.7,N
1541163935.4,286046998.9,N
1541163955.2,286046998.5,N
1541163975.1,286047000.2,N
1541163976.0,286047000.2,N
1541163995.8,286047002.2,N
1541164015.6,286047003.6,N
1541164035.5,286047005.8,N
1541164055.3,286047005.1,N
1541164075.2,286047003.1,N
1541164095.9,286047003.9,N
1541164115.7,286047000.0,N
1541164135.6,286046996.5,N
1541164155.4,286046997.6,N
1541164175.2,286046995.5,N
1541164195.1,286046996.9,N
1541164196.0,286046996.9,N
1541164215.8,286046998.7,N
1541164235.7,286046998.9,N
1541164255.5,286046997.1,N
1541164275.3,286046997.2,N
1541164295.2,286046999.4,N
1541164315.0,286046998.8,N
1541164315.9,286046998.8,N
1541164335.8,286046999.1,N
1541164355.6,286046998.7,N
1541164375.4,286047001.0,N
1541164395.3,286046998.7,N
1541164415.1,286046998.3,N
1541164435.8,286046998.6,N
1541164455.7,286046999.7,N
1541164475.5,286046998.2,N
1541164495.4,286047002.6,N
1541164515.2,286047003.8,N
1541164535.0,286047003.4,N
1541164535.9,286047003.4,N
1541164555.8,286047006.0,N
1541164575.6,286047004.1,N
1541164595.4,286047004.6,N
1541164615.3,286047007.0,N
1541164635.1,286047009.0,N
1541164655.9,286047007.7,N
1541164675.7,286047011.9,Y
1541164695.5,286047010.8,P
1541164715.4,286047010.0,N
1541164735.2,286047008.3,N
1541164755.1,286047010.2,N
1541164756.0,286047010.2,N
1541164775.8,286047010.0,N
1541164795.6,286047010.5,Y
1541164815.5,286046999.8,P
1541164835.3,286046998.2,N
1541164855.2,286047001.1,N
1541164875.9,286047002.6,N
1541164895.7,286047003.9,N
1541164915.6,286047001.5,N
1541164935.4,286047003.7,N
1541164955.2,286047002.5,N
1541164975.1,286047002.3,N
1541164976.0,286047002.3,N
1541164995.8,286046998.9,N
1541165015.7,286046999.6,N
1541165035.5,286046995.1,N
1541165055.3,286046993.9,N
1541165075.2,286046994.5,N
1541165095.0,286046994.7,N
1541165095.9,286046994.7,N
1541165115.7,286046994.5,N
1541165135.6,286046996.4,N
1541165155.4,286046998.0,N
1541165175.3,286046999.4,N
1541165195.1,286046997.4,N
1541165215.8,286046996.6,N
1541165235.7,286046999.8,N
1541165255.5,286047000.6,N
1541165275.4,286047002.5,N
1541165295.2,286047002.5,N
1541165315.0,286046999.7,N
1541165315.9,286046999.7,N
1541165335.8,286047000.3,N
1541165355.6,286046999.8,N
1541165375.4,286047000.9,N
1541165395.3,286047002.8,N
1541165415.1,286046997.0,N
1541165435.9,286046996.4,N
1541165455.7,286046995.6,N
1541165475.5,286046993.7,N
1541165495.4,286046995.2,N
1541165515.2,286046994.9,N
1541165535.0,286046997.9,N
1541165535.9,286046997.9,N
1541165555.8,286046995.4,N
1541165575.6,286046995.2,N
1541165595.5,286046995.6,N
1541165615.3,286046999.3,N
1541165635.1,286046997.9,N
1541165655.9,286046995.0,N
1541165675.7,286046996.9,N
1541165695.6,286046999.3,N
1541165715.4,286047001.2,N
1541165735.2,286047002.3,N
1541165755.1,286047002.0,N
1541165756.0,286047002.0,N
1541165775.8,286046998.9,N
1541165795.6,286046998.4,N
1541165815.5,286046998.4,N
1541165835.3,286046998.5,N
1541165855.2,286047000.0,N
1541165875.9,286047001.9,N
1541165895.7,286047002.6,N
1541165915.6,286047001.3,N
1541165935.4,286047003.5,N
1541165955.2,286047004.0,N
1541165975.1,286047001.8,N
1541165976.0,286047001.8,N
1541165995.8,286046996.6,N
1541166015.7,286046997.6,N
1541166035.5,286046999.1,N
1541166055.3,286046998.4,N
1541166075.2,286047002.0,N
1541166095.0,286047001.2,N
1541166095.9,286047001.2,N
1541166115.8,286046997.3,N
1541166135.6,286046996.8,N
1541166155.4,286046997.9,N
1541166175.3,286046997.6,N
1541166195.1,286046991.8,Y
1541166215.9,286046995.7,P
1541166235.7,286046996.2,N
1541166255.5,286046996.7,N
1541166275.4,286046997.0,N
1541166295.2,286047002.5,N
1541166315.0,286047000.0,N
1541166315.9,286047000.0,N
1541166335.8,286046999.2,N
1541166355.6,286047000.5,N
1541166375.5,286046998.5,N
1541166395.3,286047001.0,N
1541166415.1,286046998.3,N
1541166435.9,286047002.4,N
1541166455.7,286047000.7,N
1541166475.5,286046999.7,N
1541166495.4,286046998.2,N
1541166515.2,286046995.6,N
1541166535.1,286046991.3,Y
1541166536.0,286046991.3,P
1541166555.8,286046993.9,N
1541166575.6,286046996.4,N
1541166595.5,286046992.7,N
1541166615.3,286046991.6,Y
1541166635.2,286046994.4,P
1541166655.9,286046991.8,P
1541166675.7,286046990.5,P
1541166695.6,286046993.2,Y
1541166715.4,286046998.4,P
1541166735.3,286046998.6,N
1541166755.1,286047001.0,N
1541166756.0,286047001.0,N
1541166775.8,286046997.1,N
1541166795.7,286046997.6,N
1541166815.5,286046999.1,N
1541166835.3,286046998.3,N
1541166855.2,286047000.0,N
1541166875.0,286047002.2,N
1541166875.9,286047002.2,N
1541166895.8,286047001.3,N
1541166915.6,286047001.3,N
1541166935.4,286047003.8,N
1541166955.3,286047004.3,N
1541166975.1,286047000.6,N
1541166995.8,286046995.3,N
1541167015.7,286046992.0,N
1541167035.5,286046993.8,N
1541167055.4,286046995.2,N
1541167075.2,286046996.4,N
1541167095.0,286046994.6,N
1541167095.9,286046994.6,N
1541167115.8,286046990.2,N
1541167135.6,286046989.2,N
1541167155.5,286046987.5,Y
1541167175.3,286046996.3,P
1541167195.1,286046994.7,P
